EJU76YV LFLL-LEMH

Flight info

Callsign EJU76YV
Flight time 1h 5m
Altitude 35000
Route ROMAM DCT DIVKO UN852 VATIR N852 VERSO L16 SARGO
Aircraft A319/M-SDE3FGHIRWY/LB1

Departure

Time 2026-04-25 09:29
Airport Lyon Saint-Exupéry Airport (LFLL)

Arrival

Time 2026-04-25 10:35
Airport Menorca Airport (LEMH)
Time Latitude Longitude Altitude Speed Heading
2026-04-25 09:09 45.71590 5.08266 802 ft 0 kts 195°
2026-04-25 09:20 45.71592 5.08267 802 ft 1 kts 195°
2026-04-25 09:20 45.71608 5.08273 802 ft 3 kts 195°
2026-04-25 09:20 45.71627 5.08280 801 ft 3 kts 195°
2026-04-25 09:21 45.71646 5.08288 801 ft 3 kts 188°
2026-04-25 09:21 45.71665 5.08288 801 ft 3 kts 153°
2026-04-25 09:21 45.71674 5.08277 801 ft 2 kts 92°
2026-04-25 09:21 45.71674 5.08264 801 ft 3 kts 104°
2026-04-25 09:22 45.71676 5.08251 801 ft 0 kts 101°
2026-04-25 09:22 45.71676 5.08250 801 ft 0 kts 101°
2026-04-25 09:24 45.71676 5.08251 801 ft 1 kts 101°
2026-04-25 09:25 45.71675 5.08281 801 ft 5 kts 90°
2026-04-25 09:25 45.71680 5.08358 800 ft 9 kts 84°
2026-04-25 09:25 45.71685 5.08444 801 ft 8 kts 89°
2026-04-25 09:25 45.71654 5.08496 802 ft 8 kts 161°
2026-04-25 09:26 45.71603 5.08523 803 ft 7 kts 133°
2026-04-25 09:26 45.71597 5.08583 805 ft 5 kts 83°
2026-04-25 09:26 45.71600 5.08625 806 ft 4 kts 84°
2026-04-25 09:26 45.71603 5.08666 807 ft 5 kts 84°
2026-04-25 09:27 45.71607 5.08716 808 ft 5 kts 84°
2026-04-25 09:27 45.71610 5.08771 810 ft 5 kts 84°
2026-04-25 09:27 45.71612 5.08803 812 ft 2 kts 84°
2026-04-25 09:27 45.71614 5.08836 813 ft 5 kts 84°
2026-04-25 09:28 45.71620 5.08924 814 ft 13 kts 85°
2026-04-25 09:28 45.71693 5.08957 815 ft 13 kts 354°
2026-04-25 09:28 45.71884 5.08935 811 ft 59 kts 355°
2026-04-25 09:28 45.72507 5.08857 793 ft 125 kts 355°
2026-04-25 09:29 45.73581 5.08726 892 ft 167 kts 355°
2026-04-25 09:29 45.74735 5.08576 1555 ft 167 kts 355°
2026-04-25 09:29 45.75898 5.08430 2235 ft 169 kts 355°
2026-04-25 09:29 45.77078 5.08291 2925 ft 171 kts 354°
2026-04-25 09:30 45.78271 5.08146 3585 ft 172 kts 354°
2026-04-25 09:30 45.79468 5.08000 4189 ft 177 kts 354°
2026-04-25 09:30 45.80767 5.07849 4531 ft 198 kts 354°
2026-04-25 09:30 45.82230 5.07815 4803 ft 225 kts 11°
2026-04-25 09:31 45.83600 5.09049 5274 ft 247 kts 52°
2026-04-25 09:31 45.84157 5.11393 6047 ft 258 kts 90°
2026-04-25 09:31 45.83609 5.13829 6936 ft 263 kts 127°
2026-04-25 09:31 45.82183 5.15477 7806 ft 267 kts 154°
2026-04-25 09:32 45.80446 5.16459 8718 ft 270 kts 163°
2026-04-25 09:32 45.78623 5.17205 9588 ft 275 kts 166°
2026-04-25 09:32 45.76760 5.17939 10421 ft 280 kts 165°
2026-04-25 09:32 45.74882 5.18742 11212 ft 284 kts 163°
2026-04-25 09:33 45.72991 5.19621 12002 ft 288 kts 163°
2026-04-25 09:33 45.71016 5.20156 12751 ft 293 kts 177°
2026-04-25 09:33 45.68899 5.20114 13068 ft 315 kts 185°
2026-04-25 09:33 45.66655 5.19952 13311 ft 338 kts 184°
2026-04-25 09:34 45.64233 5.19783 13688 ft 355 kts 184°
2026-04-25 09:34 45.61738 5.19620 14307 ft 362 kts 184°
2026-04-25 09:34 45.59204 5.19462 14960 ft 367 kts 184°
2026-04-25 09:34 45.56640 5.19304 15625 ft 371 kts 184°
2026-04-25 09:35 45.54037 5.19140 16278 ft 375 kts 185°
2026-04-25 09:35 45.51415 5.18974 16929 ft 379 kts 185°
2026-04-25 09:35 45.48762 5.18808 17582 ft 384 kts 185°
2026-04-25 09:35 45.46075 5.18636 18221 ft 388 kts 185°
2026-04-25 09:36 45.43367 5.18462 18850 ft 390 kts 185°
2026-04-25 09:36 45.40649 5.18285 19438 ft 393 kts 185°
2026-04-25 09:36 45.37909 5.18105 20018 ft 396 kts 185°
2026-04-25 09:36 45.35144 5.17920 20600 ft 399 kts 185°
2026-04-25 09:37 45.32353 5.17736 21169 ft 402 kts 185°
2026-04-25 09:37 45.29539 5.17558 21750 ft 406 kts 185°
2026-04-25 09:37 45.26711 5.17381 22307 ft 409 kts 185°
2026-04-25 09:37 45.23858 5.17200 22897 ft 412 kts 185°
2026-04-25 09:38 45.20988 5.17018 23454 ft 415 kts 185°
2026-04-25 09:38 45.18094 5.16835 23943 ft 418 kts 185°
2026-04-25 09:38 45.15182 5.16649 24401 ft 420 kts 185°
2026-04-25 09:38 45.12287 5.16466 24859 ft 422 kts 185°
2026-04-25 09:39 45.09358 5.16169 25307 ft 422 kts 190°
2026-04-25 09:39 45.06443 5.15599 25744 ft 424 kts 190°
2026-04-25 09:39 45.03514 5.15024 26206 ft 425 kts 190°
2026-04-25 09:40 44.97622 5.13872 27101 ft 429 kts 190°
2026-04-25 09:40 44.94659 5.13294 27533 ft 431 kts 190°
2026-04-25 09:40 44.91677 5.12715 27962 ft 433 kts 190°
2026-04-25 09:40 44.88680 5.12136 28388 ft 436 kts 190°
2026-04-25 09:41 44.85665 5.11553 28817 ft 437 kts 189°
2026-04-25 09:41 44.82643 5.10966 29238 ft 439 kts 189°
2026-04-25 09:41 44.79602 5.10377 29637 ft 441 kts 189°
2026-04-25 09:41 44.76552 5.09788 30028 ft 443 kts 189°
2026-04-25 09:42 44.73491 5.09197 30375 ft 445 kts 189°
2026-04-25 09:42 44.70417 5.08604 30697 ft 447 kts 189°
2026-04-25 09:42 44.67332 5.08008 31014 ft 449 kts 189°
2026-04-25 09:42 44.64234 5.07408 31332 ft 450 kts 189°
2026-04-25 09:43 44.61125 5.06808 31648 ft 451 kts 189°
2026-04-25 09:43 44.58012 5.06211 32012 ft 451 kts 189°
2026-04-25 09:43 44.54908 5.05615 32466 ft 449 kts 189°
2026-04-25 09:43 44.51854 5.05027 32898 ft 448 kts 189°
2026-04-25 09:44 44.48777 5.04437 33343 ft 446 kts 189°
2026-04-25 09:44 44.45709 5.03853 33800 ft 444 kts 189°
2026-04-25 09:44 44.42652 5.03271 34237 ft 443 kts 189°
2026-04-25 09:44 44.39599 5.02690 34627 ft 441 kts 189°
2026-04-25 09:45 44.36556 5.02110 34981 ft 441 kts 189°
2026-04-25 09:45 44.33521 5.01529 35099 ft 439 kts 189°
2026-04-25 09:45 44.27540 5.00394 35134 ft 431 kts 189°
2026-04-25 09:46 44.21608 4.99272 35136 ft 430 kts 189°
2026-04-25 09:46 44.15676 4.98148 35139 ft 429 kts 189°
2026-04-25 09:47 44.09753 4.97026 35136 ft 430 kts 189°
2026-04-25 09:47 44.03817 4.95904 35136 ft 430 kts 189°
2026-04-25 09:48 43.97882 4.94786 35142 ft 430 kts 189°
2026-04-25 09:48 43.91953 4.93672 35130 ft 430 kts 189°
2026-04-25 09:49 43.86024 4.92562 35132 ft 430 kts 189°
2026-04-25 09:49 43.80101 4.91451 35129 ft 430 kts 189°
2026-04-25 09:50 43.74172 4.90337 35125 ft 430 kts 189°
2026-04-25 09:50 43.68248 4.89232 35120 ft 430 kts 188°
2026-04-25 09:51 43.62320 4.88130 35119 ft 430 kts 188°
2026-04-25 09:51 43.56426 4.87041 35124 ft 430 kts 188°
2026-04-25 09:52 43.50497 4.85946 35124 ft 430 kts 188°
2026-04-25 09:52 43.44558 4.84840 35123 ft 430 kts 188°
2026-04-25 09:53 43.38616 4.83734 35123 ft 431 kts 188°
2026-04-25 09:53 43.32676 4.82641 35120 ft 431 kts 188°
2026-04-25 09:54 43.26733 4.81556 35119 ft 431 kts 188°
2026-04-25 09:54 43.20784 4.80472 35121 ft 431 kts 188°
2026-04-25 09:55 43.14837 4.79376 35124 ft 431 kts 188°
2026-04-25 09:55 43.08887 4.78276 35120 ft 431 kts 189°
2026-04-25 09:56 43.03197 4.75836 35121 ft 429 kts 208°
2026-04-25 09:56 42.97975 4.71886 35124 ft 429 kts 210°
2026-04-25 09:57 42.92746 4.67921 35126 ft 430 kts 210°
2026-04-25 09:57 42.87514 4.63967 35120 ft 430 kts 210°
2026-04-25 09:58 42.83159 4.60679 35123 ft 431 kts 210°
2026-04-25 09:58 42.77915 4.56727 35125 ft 431 kts 210°
2026-04-25 09:59 42.72667 4.52783 35133 ft 430 kts 210°
2026-04-25 09:59 42.67427 4.48854 35138 ft 430 kts 210°
2026-04-25 10:00 42.62189 4.44928 35135 ft 430 kts 210°
2026-04-25 10:00 42.56949 4.41009 35133 ft 429 kts 210°
2026-04-25 10:01 42.51718 4.37111 35126 ft 429 kts 210°
2026-04-25 10:01 42.46477 4.33207 35126 ft 430 kts 209°
2026-04-25 10:02 42.41271 4.29333 35130 ft 430 kts 210°
2026-04-25 10:02 42.36012 4.25430 35129 ft 430 kts 210°
2026-04-25 10:03 42.30757 4.21547 35124 ft 431 kts 209°
2026-04-25 10:03 42.25491 4.17656 35129 ft 431 kts 209°
2026-04-25 10:04 42.20229 4.13771 35134 ft 431 kts 209°
2026-04-25 10:04 42.14965 4.09879 35134 ft 431 kts 209°
2026-04-25 10:05 42.09686 4.06015 35131 ft 432 kts 209°
2026-04-25 10:05 42.04408 4.02150 35138 ft 432 kts 209°
2026-04-25 10:06 41.99133 3.98279 35140 ft 432 kts 209°
2026-04-25 10:06 41.93851 3.94509 35141 ft 433 kts 204°
2026-04-25 10:07 41.88061 3.92356 35141 ft 433 kts 189°
2026-04-25 10:07 41.82111 3.90999 35137 ft 434 kts 190°
2026-04-25 10:08 41.76149 3.89621 35143 ft 435 kts 190°
2026-04-25 10:08 41.70189 3.88238 35142 ft 435 kts 190°
2026-04-25 10:09 41.64202 3.86860 34755 ft 440 kts 190°
2026-04-25 10:09 41.61189 3.86171 34176 ft 438 kts 189°
2026-04-25 10:09 41.58190 3.85486 33594 ft 435 kts 190°
2026-04-25 10:10 41.55224 3.84805 33073 ft 431 kts 190°
2026-04-25 10:10 41.52283 3.84128 32546 ft 428 kts 190°
2026-04-25 10:10 41.49358 3.83458 32018 ft 425 kts 190°
2026-04-25 10:10 41.46458 3.82794 31510 ft 422 kts 190°
2026-04-25 10:11 41.43570 3.82136 30998 ft 419 kts 190°
2026-04-25 10:11 41.40706 3.81485 30495 ft 416 kts 190°
2026-04-25 10:11 41.37855 3.80837 29957 ft 414 kts 190°
2026-04-25 10:11 41.35029 3.80189 29460 ft 410 kts 190°
2026-04-25 10:12 41.32231 3.79545 28982 ft 405 kts 190°
2026-04-25 10:12 41.29463 3.78912 28512 ft 402 kts 190°
2026-04-25 10:12 41.23994 3.77670 27596 ft 396 kts 190°
2026-04-25 10:13 41.21326 3.77064 27168 ft 393 kts 190°
2026-04-25 10:13 41.18633 3.76452 26737 ft 391 kts 189°
2026-04-25 10:13 41.15938 3.76147 26306 ft 388 kts 179°
2026-04-25 10:13 41.13264 3.76488 25870 ft 386 kts 168°
2026-04-25 10:14 41.10675 3.77375 25440 ft 383 kts 164°
2026-04-25 10:14 41.08114 3.78320 24995 ft 381 kts 164°
2026-04-25 10:14 41.05562 3.79246 24546 ft 379 kts 164°
2026-04-25 10:14 41.03020 3.80163 24109 ft 377 kts 164°
2026-04-25 10:15 41.00489 3.81075 23628 ft 377 kts 164°
2026-04-25 10:15 40.97968 3.81986 23134 ft 374 kts 164°
2026-04-25 10:15 40.95459 3.82891 22669 ft 372 kts 164°
2026-04-25 10:15 40.92974 3.83786 22218 ft 369 kts 164°
2026-04-25 10:16 40.90501 3.84675 21765 ft 367 kts 164°
2026-04-25 10:16 40.88042 3.85559 21307 ft 365 kts 164°
2026-04-25 10:16 40.85594 3.86438 20863 ft 363 kts 164°
2026-04-25 10:16 40.83159 3.87311 20414 ft 362 kts 163°
2026-04-25 10:17 40.80734 3.88182 19972 ft 361 kts 163°
2026-04-25 10:17 40.78313 3.89054 19533 ft 359 kts 163°
2026-04-25 10:17 40.75905 3.89919 19094 ft 358 kts 163°
2026-04-25 10:17 40.73501 3.90782 18656 ft 358 kts 163°
2026-04-25 10:18 40.71102 3.91643 18191 ft 357 kts 163°
2026-04-25 10:18 40.68714 3.92500 17750 ft 354 kts 163°
2026-04-25 10:18 40.66344 3.93351 17323 ft 352 kts 163°
2026-04-25 10:18 40.63980 3.94196 16900 ft 350 kts 163°
2026-04-25 10:19 40.61635 3.95032 16483 ft 348 kts 163°
2026-04-25 10:19 40.59296 3.95863 16064 ft 347 kts 163°
2026-04-25 10:19 40.56970 3.96691 15655 ft 346 kts 163°
2026-04-25 10:19 40.54652 3.97516 15252 ft 345 kts 164°
2026-04-25 10:20 40.52335 3.98341 14825 ft 344 kts 164°
2026-04-25 10:20 40.50063 3.99152 14429 ft 343 kts 164°
2026-04-25 10:20 40.47734 3.99982 14012 ft 342 kts 164°
2026-04-25 10:20 40.45442 4.00800 13567 ft 341 kts 164°
2026-04-25 10:21 40.43163 4.01617 13152 ft 338 kts 164°
2026-04-25 10:21 40.40901 4.02425 12731 ft 336 kts 164°
2026-04-25 10:21 40.38659 4.03227 12321 ft 333 kts 163°
2026-04-25 10:21 40.36577 4.04359 12122 ft 323 kts 153°
2026-04-25 10:22 40.34574 4.05647 11775 ft 317 kts 153°
2026-04-25 10:22 40.32608 4.06924 11367 ft 314 kts 153°
2026-04-25 10:22 40.30656 4.08197 10947 ft 311 kts 153°
2026-04-25 10:22 40.28728 4.09458 10562 ft 308 kts 153°
2026-04-25 10:23 40.26852 4.10686 10379 ft 297 kts 153°
2026-04-25 10:23 40.25020 4.11885 10037 ft 292 kts 153°
2026-04-25 10:23 40.23210 4.13072 9603 ft 290 kts 152°
2026-04-25 10:23 40.21414 4.14247 9183 ft 287 kts 152°
2026-04-25 10:24 40.19723 4.15611 8730 ft 285 kts 143°
2026-04-25 10:24 40.18123 4.17125 8287 ft 283 kts 142°
2026-04-25 10:24 40.16541 4.18625 7856 ft 280 kts 142°
2026-04-25 10:24 40.14971 4.20110 7383 ft 277 kts 143°
2026-04-25 10:25 40.13418 4.21580 6869 ft 275 kts 143°
2026-04-25 10:25 40.11874 4.23049 6246 ft 273 kts 142°
2026-04-25 10:25 40.10347 4.24505 5631 ft 271 kts 142°
2026-04-25 10:25 40.08717 4.25655 5022 ft 270 kts 160°
2026-04-25 10:26 40.06858 4.26046 4300 ft 273 kts 181°
2026-04-25 10:26 40.05010 4.25726 3853 ft 263 kts 188°
2026-04-25 10:26 40.03238 4.25362 3498 ft 251 kts 188°
2026-04-25 10:26 40.01553 4.25017 3170 ft 239 kts 188°
2026-04-25 10:27 39.99944 4.24685 2861 ft 229 kts 188°
2026-04-25 10:27 39.98398 4.24366 2553 ft 221 kts 187°
2026-04-25 10:27 39.96888 4.24055 2264 ft 220 kts 188°
2026-04-25 10:27 39.95370 4.23742 1962 ft 222 kts 187°
2026-04-25 10:28 39.93869 4.23433 1648 ft 212 kts 187°
2026-04-25 10:28 39.92466 4.23142 1374 ft 196 kts 186°
2026-04-25 10:28 39.91174 4.22875 1163 ft 182 kts 186°
2026-04-25 10:28 39.89950 4.22624 890 ft 171 kts 187°
2026-04-25 10:29 39.88821 4.22390 654 ft 159 kts 187°
2026-04-25 10:29 39.87774 4.22177 450 ft 146 kts 187°
2026-04-25 10:29 39.86785 4.21971 365 ft 147 kts 186°
2026-04-25 10:29 39.85704 4.21758 982 ft 162 kts 186°
2026-04-25 10:30 39.84594 4.21542 1807 ft 167 kts 186°
2026-04-25 10:30 39.83793 4.21491 2177 ft 174 kts 171°
2026-04-25 10:30 39.82409 4.22555 2597 ft 181 kts 125°
2026-04-25 10:30 39.82039 4.24134 2699 ft 184 kts 99°
2026-04-25 10:31 39.81845 4.25741 2593 ft 181 kts 98°
2026-04-25 10:31 39.82222 4.27266 2627 ft 187 kts 51°
2026-04-25 10:31 39.83395 4.28007 2574 ft 193 kts 12°
2026-04-25 10:31 39.84709 4.28333 2484 ft 192 kts 13°
2026-04-25 10:32 39.86029 4.28604 2390 ft 192 kts 11°
2026-04-25 10:32 39.87348 4.28864 2373 ft 194 kts
2026-04-25 10:32 39.88678 4.28635 2222 ft 192 kts 339°
2026-04-25 10:32 39.89684 4.27597 2106 ft 183 kts 304°
2026-04-25 10:33 39.90154 4.26101 1844 ft 175 kts 285°
2026-04-25 10:33 39.90368 4.24608 1616 ft 162 kts 274°
2026-04-25 10:33 39.90281 4.23219 1454 ft 150 kts 245°
2026-04-25 10:33 39.89556 4.22382 1084 ft 143 kts 186°
2026-04-25 10:34 39.88549 4.22319 626 ft 149 kts 185°
2026-04-25 10:34 39.87540 4.22131 391 ft 143 kts 186°
2026-04-25 10:34 39.86623 4.21940 305 ft 121 kts 188°
2026-04-25 10:34 39.85926 4.21797 301 ft 77 kts 188°
2026-04-25 10:35 39.85551 4.21777 291 ft 39 kts 164°
2026-04-25 10:35 39.85399 4.21889 282 ft 17 kts 94°
2026-04-25 10:35 39.85490 4.21946 285 ft 16 kts 10°
2026-04-25 10:35 39.85612 4.21969 288 ft 19 kts
2026-04-25 10:36 39.85749 4.21997 292 ft 21 kts
2026-04-25 10:36 39.85898 4.22029 296 ft 23 kts
2026-04-25 10:36 39.86076 4.22065 296 ft 28 kts
2026-04-25 10:36 39.86272 4.22106 294 ft 25 kts
2026-04-25 10:37 39.86451 4.22142 296 ft 26 kts
2026-04-25 10:37 39.86544 4.22188 295 ft 12 kts 69°
2026-04-25 10:37 39.86540 4.22315 292 ft 16 kts 69°
2026-04-25 10:37 39.86635 4.22352 290 ft 14 kts
2026-04-25 10:38 39.86671 4.22419 289 ft 11 kts 99°
2026-04-25 10:38 39.86667 4.22450 288 ft 0 kts 99°